User: anonymous   Login
Location: Fort Wayne
(41.1310°N, 85.1290°W)
Time: 00:09:02
(UTC-05:00)
Language:

BREEZE-M DEB (TANK) - Orbit

View from above orbital plane
View from above orbital plane
View from above satellite
View from above satellite

Ground track
Ground track

The orbit data is extracted from the following two-line orbital elements,

1 27821U 03024B   14326.65469109  .00006096  00000-0  76990-3 0  5301
2 27821 049.5910 027.2467 5001189 042.7706 025.5849 05.64109769226918
Epoch (UTC): 22 November 2014 15:42:45
Eccentricity: 0.5001189
inclination: 49.5910°
perigee height: 285 km
apogee height: 13618 km
right ascension of ascending node: 27.2467°
argument of perigee: 42.7706°
revolutions per day: 5.64109769
mean anomaly at epoch: 25.5849°
orbit number at epoch: 22691

The dashed part of the orbit path shows where the satellite is in the earth's shadow,  

DLR